sat.trackr.live / text

‹ back to catalog

STARLINK-35554

NORAD 66239 · 2025-245F

PAYLOAD ACTIVE UNKNOWN

§ Identity

Operator
Country
US
Launch date
2025-10-29
Launch site
AFETR
Launch vehicle
Mass (kg)
RCS (m²)

Purposes: comms

External: N2YO · Heavens-Above · Gunter

§ Orbital elements

Epoch: 2026-05-25T02:22:01.422912Z

Period
94.11 min
Inclination
53.1612°
Eccentricity
0.0000425
Mean motion
15.30201559 rev/d
Perigee alt
474.9 km
Apogee alt
475.5 km
Semi-major
6,853.3 km
B*
5.2122e-4
RAAN
289.0862°
Arg perigee
75.2440°
Mean anomaly
284.8608°
Rev number
3,279

§ Raw data

STARLINK-355541 66239U 25245F   26145.09862758  .00015110  00000+0  52122-3 0  99992 66239  53.1612 289.0862 0000425  75.2440 284.8608 15.30201559 32792

JSON: /api/v1/satellites/66239 · /tle

For live sub-satellite position, see the globe view (requires WebGL).

§ Visibility from observer

Set your observer location to see the next 7 days of passes ≥ 10°. The values pass through the URL so the page stays shareable.

No JS? Fill the form by hand. The geolocation button needs JavaScript.